DW0000 Weather Reports


time (UTC)temp
F
wind
direction
speed
knots
gust
knots
rain 1hr
in
rain 24hr
in
rain mn
in
humidity
%
barometer
mb
20260904171005 54 253 6.1 12.2 0.00 0.07 0.00 81 1017.4
20260904163008 54 241 11.3 20.9 0.00 0.07 0.00 86 1016.9
20260904162506 54 242 8.7 14.8 0.00 0.07 0.00 86 1017.0
20260904162006 54 239 8.7 14.8 0.00 0.07 0.00 86 1016.7
20260904161507 54 246 6.1 11.3 0.00 0.07 0.00 86 1016.8
20260904160507 54 247 8.7 14.8 0.00 0.07 0.00 85 1016.5
20260904155007 54 243 9.6 14.8 0.00 0.07 0.00 85 1016.4
20260904153007 54 232 7.8 13.0 0.00 0.07 0.00 84 1016.3
20260904151506 54 243 10.4 15.6 0.00 0.07 0.00 86 1016.2
20260904151006 54 226 8.7 13.0 0.00 0.07 0.00 87 1016.2
20260904144007 55 237 11.3 17.4 0.00 0.07 0.00 90 1016.3
20260904142506 55 249 12.2 20.0 0.00 0.07 0.00 88 1016.3
20260904142006 55 250 11.3 19.1 0.00 0.07 0.00 87 1016.2
20260904134506 55 251 9.6 19.1 0.00 0.07 0.00 88 1016.2
20260904134008 55 253 10.4 20.9 0.00 0.07 0.00 88 1016.1
20260904133506 55 241 13.9 20.9 0.00 0.07 0.00 88 1016.2
20260904133006 55 249 10.4 17.4 0.00 0.07 0.00 87 1016.1
20260904132507 55 249 11.3 20.9 0.00 0.07 0.00 87 1015.9
20260904132007 55 246 13.0 20.0 0.00 0.07 0.00 87 1015.9
20260904131505 55 253 9.6 18.2 0.00 0.07 0.00 88 1015.8
20260904125507 55 247 11.3 18.2 0.00 0.07 0.00 88 1015.6
20260904124506 55 260 10.4 19.1 0.00 0.07 0.00 87 1015.5
20260904122006 54 251 12.2 19.1 0.00 0.07 0.00 86 1015.3
20260904121506 54 251 14.8 22.6 0.00 0.07 0.00 87 1015.1
20260904121006 54 249 11.3 21.7 0.00 0.07 0.00 87 1015.2
20260904120006 54 251 12.2 18.2 0.00 0.07 0.00 87 1015.4
20260904115008 55 249 11.3 20.0 0.00 0.07 0.07 86 1015.4
20260904114506 55 249 11.3 19.1 0.00 0.07 0.07 86 1015.5
20260904113008 55 248 13.9 20.0 0.00 0.07 0.07 87 1015.4
20260904112506 55 249 13.0 22.6 0.00 0.07 0.07 87 1015.3
20260904111507 55 250 13.0 21.7 0.00 0.07 0.07 87 1015.4
20260904105006 55 250 13.0 21.7 0.00 0.07 0.07 87 1015.3
20260904104506 55 252 11.3 18.2 0.00 0.07 0.07 87 1015.3
20260904102507 55 253 9.6 20.0 0.00 0.07 0.07 87 1015.3
20260904101007 55 243 14.8 22.6 0.00 0.07 0.07 86 1015.3
20260904100506 55 246 11.3 20.0 0.00 0.07 0.07 85 1015.1
20260904100006 55 246 16.5 25.2 0.00 0.07 0.07 85 1015.1
20260904095507 55 242 15.6 24.3 0.00 0.07 0.07 86 1015.3
20260904095005 55 243 11.3 19.1 0.00 0.07 0.07 86 1015.2
20260904094008 55 249 13.9 25.2 0.00 0.07 0.07 86 1015.2
20260904093506 55 252 13.9 22.6 0.00 0.07 0.07 87 1014.9
20260904092006 55 251 13.0 20.9 0.00 0.07 0.07 86 1014.5
20260904090005 54 247 13.9 26.9 0.00 0.07 0.07 86 1014.2
20260904085508 54 245 16.5 21.7 0.00 0.07 0.07 87 1014.1
20260904084506 55 250 12.2 18.2 0.00 0.07 0.07 88 1014.1
20260904082006 55 244 17.4 27.8 0.00 0.07 0.07 87 1014.0
20260904081506 55 253 13.9 26.1 0.00 0.07 0.07 88 1013.8
20260904081007 55 252 13.9 20.0 0.00 0.07 0.07 88 1013.9
20260904073006 56 251 12.2 21.7 0.00 0.07 0.07 95 1013.3
20260904072507 56 248 15.6 21.7 0.00 0.07 0.07 96 1013.3
20260904071506 56 258 13.9 20.9 0.00 0.07 0.07 96 1013.1
20260904070506 56 254 12.2 19.1 0.00 0.07 0.07 96 1013.1
20260904065006 56 251 12.2 18.2 0.00 0.07 0.07 97 1012.7
20260904064505 56 260 10.4 18.2 0.00 0.07 0.07 97 1012.5
20260904064005 56 257 11.3 20.0 0.00 0.07 0.07 97 1012.6
20260904062007 57 259 11.3 19.1 0.00 0.07 0.07 98 1012.2
20260904061505 57 259 10.4 18.2 0.00 0.07 0.07 98 1012.2
20260904061006 57 252 13.0 20.9 0.00 0.07 0.07 98 1012.1
20260904060508 57 249 11.3 20.0 0.00 0.07 0.07 98 1012.3
20260904060006 58 258 12.2 19.1 0.00 0.07 0.07 98 1012.2
20260904055007 58 263 12.2 20.9 0.00 0.07 0.07 98 1011.9
20260904054006 58 253 12.2 20.9 0.02 0.07 0.07 99 1011.9
20260904053507 58 253 13.9 19.1 0.02 0.07 0.07 99 1011.7
20260904053006 58 259 10.4 17.4 0.02 0.07 0.07 99 1011.5
20260904051507 58 262 11.3 21.7 0.02 0.08 0.07 99 1011.5
20260904050007 59 273 10.4 20.0 0.02 0.10 0.07 99 1011.3
20260904045506 59 281 8.7 26.1 0.02 0.09 0.07 99 1011.2
20260904045006 59 305 13.9 26.1 0.02 0.09 0.07 99 1011.0
20260904044005 59 314 21.7 33.0 0.01 0.08 0.06 99 1010.5
20260904042505 59 312 28.7 38.2 0.01 0.08 0.06 99 1010.2
20260904042007 59 319 26.1 38.2 0.01 0.08 0.06 98 1010.0
20260904041506 59 317 29.5 39.1 0.02 0.08 0.06 98 1010.1
20260904041005 59 314 26.1 39.1 0.02 0.08 0.06 98 1009.9
20260904040506 59 322 26.1 35.6 0.02 0.08 0.06 98 1010.3
20260904040006 59 316 25.2 33.0 0.02 0.08 0.06 98 1010.3
20260904033505 59 316 26.9 46.1 0.01 0.07 0.04 97 1010.2
20260904032506 59 321 27.8 40.8 0.01 0.07 0.04 97 1010.2
20260904031007 59 313 28.7 41.7 0.01 0.07 0.04 96 1010.3
20260904025005 59 317 30.4 40.0 0.01 0.06 0.04 96 1010.2
20260904024506 59 317 32.2 42.6 0.01 0.06 0.03 95 1010.2
20260904022007 59 311 28.7 46.1 0.03 0.06 0.03 96 1010.2
20260904021005 59 319 33.9 46.1 0.03 0.06 0.03 96 1010.2
20260904020507 59 311 30.4 45.2 0.03 0.06 0.03 96 1010.5
20260904020005 59 306 31.3 45.2 0.03 0.06 0.03 95 1010.1
20260904015505 59 309 29.5 45.2 0.03 0.06 0.03 95 1010.2
20260904014505 59 318 31.3 46.1 0.02 0.05 0.02 94 1010.1
20260904013507 59 322 35.6 50.4 0.02 0.05 0.02 93 1009.6
20260904012007 60 308 27.8 46.9 0.00 0.03 0.00 90 1010.9
20260904005007 61 309 30.4 42.6 0.00 0.03 0.00 88 1011.8
20260904004507 61 314 29.5 45.2 0.00 0.03 0.00 88 1012.0
20260904004005 61 311 34.8 45.2 0.00 0.03 0.00 87 1012.0
20260904003007 62 314 28.7 45.2 0.00 0.03 0.00 88 1012.2
20260904002505 62 317 35.6 45.2 0.00 0.03 0.00 87 1012.1
20260904002005 62 300 21.7 39.1 0.00 0.03 0.00 87 1012.3
20260903235504 62 315 24.3 37.4 0.00 0.03 0.00 89 1012.8
20260903235007 61 320 24.3 32.2 0.00 0.03 0.00 91 1013.0
20260903234505 61 323 26.1 40.0 0.00 0.03 0.00 91 1013.0
20260903233505 60 319 22.6 33.9 0.00 0.03 0.00 93 1013.1
20260903233007 59 322 27.8 41.7 0.00 0.03 0.00 93 1013.1
20260903232505 60 324 32.2 45.2 0.00 0.03 0.00 92 1013.2
20260903231505 60 317 23.5 33.9 0.00 0.03 0.00 92 1013.2
20260903231007 60 314 24.3 33.0 0.00 0.03 0.00 91 1013.2
20260903225005 60 318 23.5 40.8 0.00 0.03 0.00 89 1013.5
20260903224505 60 316 21.7 33.0 0.00 0.03 0.00 89 1013.3
20260903224006 60 314 22.6 34.8 0.00 0.03 0.00 89 1013.5
20260903223504 60 312 26.1 37.4 0.00 0.03 0.00 89 1013.5
20260903222507 60 316 26.1 33.9 0.00 0.03 0.00 88 1013.3
20260903222005 60 323 25.2 38.2 0.00 0.03 0.00 88 1013.3
20260903220505 60 326 21.7 34.8 0.00 0.03 0.00 89 1013.7
20260903214005 59 323 22.6 33.9 0.00 0.03 0.00 90 1014.0
20260903213006 59 321 22.6 28.7 0.00 0.03 0.00 90 1014.0
20260903212504 59 310 23.5 33.0 0.00 0.03 0.00 90 1013.8
20260903211507 59 320 27.8 39.1 0.00 0.03 0.00 90 1014.2
20260903211005 59 317 32.2 40.0 0.00 0.03 0.00 89 1014.0
20260903210506 58 317 24.3 31.3 0.00 0.03 0.00 89 1014.2
20260903210005 58 317 21.7 32.2 0.00 0.03 0.00 89 1014.2
20260903205507 58 323 22.6 30.4 0.00 0.03 0.00 89 1014.3
20260903203506 58 316 24.3 39.1 0.00 0.03 0.00 89 1014.5
20260903202505 58 304 26.1 32.2 0.00 0.03 0.00 89 1014.5
20260903202004 58 312 25.2 32.2 0.00 0.03 0.00 89 1014.4
20260903201506 58 320 27.8 34.8 0.00 0.03 0.00 88 1014.6
20260903200505 58 319 27.8 39.1 0.00 0.03 0.00 88 1014.3
20260903195504 58 314 24.3 33.0 0.00 0.03 0.00 90 1014.5
20260903193506 57 312 26.1 35.6 0.00 0.03 0.00 93 1014.3
20260903192005 57 307 26.9 33.0 0.00 0.03 0.00 94 1014.3
20260903191006 56 304 21.7 30.4 0.00 0.03 0.00 94 1014.5
20260903185505 56 316 25.2 34.8 0.00 0.03 0.00 94 1014.6
20260903183006 56 311 20.9 33.9 0.00 0.03 0.00 94 1014.8
20260903182004 57 306 22.6 30.4 0.00 0.03 0.00 94 1014.8
20260903181504 57 312 23.5 28.7 0.00 0.03 0.00 94 1014.9
20260903175505 57 311 24.3 28.7 0.00 0.03 0.00 95 1015.1
20260903175007 57 316 22.6 33.0 0.00 0.03 0.00 95 1015.0
20260903174505 57 319 22.6 34.8 0.00 0.03 0.00 95 1015.0
20260903174004 57 317 20.0 34.8 0.00 0.03 0.00 95 1015.0
20260903171506 57 311 18.2 30.4 0.00 0.03 0.00 95 1015.2